This is the latest recevied weather packets stored in our database for station/object DB0TV-13. If no packets are shown the sender has not sent any weather packets the latest 10 day(s).
| Time | Temp. | Humidity | Pressure | Rain* | Wind** | Luminosity | Snow |
|---|---|---|---|---|---|---|---|
| 1777668619 | 16.67° C | 46% | 1022.7 hPa | 0 mm | - | 0 W/m² | - |
| 1777668019 | 16.67° C | 46% | 1022.7 hPa | 0 mm | - | 0 W/m² | - |
| 1777667419 | 16.67° C | 46% | 1022.8 hPa | 0 mm | - | 0 W/m² | - |
| 1777666818 | 17.22° C | 45% | 1022.7 hPa | 0 mm | - | 0 W/m² | - |
| 1777666219 | 17.22° C | 45% | 1022.8 hPa | 0 mm | - | 0 W/m² | - |
| 1777665619 | 17.78° C | 44% | 1022.8 hPa | 0 mm | - | 0 W/m² | - |
| 1777665019 | 17.78° C | 44% | 1022.8 hPa | 0 mm | - | 0 W/m² | - |
| 1777664418 | 17.22° C | 45% | 1022.6 hPa | 0 mm | - | 0 W/m² | - |
| 1777663818 | 17.78° C | 44% | 1022.7 hPa | 0 mm | - | 0 W/m² | - |
| 1777663219 | 18.33° C | 43% | 1022.8 hPa | 0 mm | - | 0 W/m² | - |
| 1777662619 | 18.33° C | 42% | 1022.7 hPa | 0 mm | - | 0 W/m² | - |
| 1777662018 | 18.89° C | 41% | 1022.8 hPa | 0 mm | - | 0 W/m² | - |
| 1777661419 | 18.89° C | 40% | 1022.8 hPa | 0 mm | - | 6 W/m² | - |
| 1777660819 | 19.44° C | 40% | 1022.8 hPa | 0 mm | - | 10 W/m² | - |
| 1777660218 | 19.44° C | 40% | 1022.9 hPa | 0 mm | - | 12 W/m² | - |
| 1777659619 | 19.44° C | 39% | 1022.7 hPa | 0 mm | - | 16 W/m² | - |
| 1777659020 | 20° C | 38% | 1022.8 hPa | 0 mm | - | 18 W/m² | - |
| 1777658419 | 20° C | 38% | 1022.7 hPa | 0 mm | - | 19 W/m² | - |
| 1777657819 | 20.56° C | 37% | 1022.6 hPa | 0 mm | - | 22 W/m² | - |
| 1777657218 | 20.56° C | 37% | 1022.5 hPa | 0 mm | - | 25 W/m² | - |
| 1777656619 | 20.56° C | 36% | 1022.6 hPa | 0 mm | - | 26 W/m² | - |
| 1777656020 | 21.11° C | 36% | 1022.6 hPa | 0 mm | - | 62 W/m² | - |
| 1777655420 | 21.11° C | 35% | 1022.6 hPa | 0 mm | - | 201 W/m² | - |
| 1777654819 | 21.11° C | 35% | 1022.6 hPa | 0 mm | - | 228 W/m² | - |
| 1777654218 | 21.67° C | 36% | 1022.6 hPa | 0 mm | - | 258 W/m² | - |
* Rain latest hour (hover to see other rain measurements)
** Current wind speed in m/s (hover to see current wind gust speed)